[[{"header":{"parameterUnit":"m.s-1","parameterCategory":1,"la1":30.2991,"la2":30.254,"lo1":-89.0895,"lo2":-89.0444,"dy":0.0017,"dx":0.0017,"nx":28,"ny":28,"refTime":"2024-10-08T03:00:00:Z","depth":0,"parameterNumber":2,"parameterNumberName":"U-component_of_WINDS"},"data":[0,0,0,0,0,0,0,0,0,0,0,0,0,0,0,0,0,0,0,0,0,0,0,0,0,0,0,0,0,0,0,0,0,0,0,0,0,0,0,0,0,0,0,0,0,0,0,0,0,0,0,0,0,0,0,0,0,0,-1.0051,-1.0051,0,-1.0039,-1.0039,-1.0039,-0.9974,-0.9973,-0.9971,-0.997,-0.9959,-0.9961,-0.9962,0,0,0,0,0,0,0,0,0,0,0,0,0,-1.0019,-1.002,-1.0051,-1.0051,-1.005,-1.0039,-1.0039,-1.0039,-0.9975,-0.9973,-0.9971,-0.9969,-0.9959,-0.996,-0.9962,0,0,0,0,0,0,0,0,0,0,0,0,0,-1.0023,-1.002,-1.0051,-1.0017,-1.0014,-1.0039,-1.0039,-1.0039,-0.9975,-0.9973,-0.997,-0.9968,-0.9959,-0.996,-0.9962,-1.0019,0,0,-0.9967,-0.9968,0,0,0,0,0,0,0,0,-1.0022,-1.0024,-1.0022,-1.0019,-1.0016,-1.0006,-1.0024,-1.0032,-0.9976,-0.999,-0.997,-0.9967,-0.9977,-0.9977,-0.998,-1.0019,-1.0019,-0.9968,-0.9969,-0.9969,-0.997,0,0,0,0,0,0,0,-1.0022,-1.0024,-1.0046,-1.0022,-1.0018,-1.0003,-1.0001,-1.0025,-0.9997,-0.9988,-0.9984,-0.9983,-0.9975,-0.9978,-0.9979,-1.0018,-0.9967,-0.9969,-0.997,-0.9971,-1.0105,-1.0107,0,0,0,0,0,0,-1.0027,-1.0024,-1.0047,-1.0046,-1.0013,-1.0005,-1.0003,-1.0011,-0.9996,-0.9991,-0.9985,-0.998,-0.9977,-0.9977,-0.9979,-1.0045,-0.9969,-0.9971,-0.9972,-1.0102,-1.0105,-1.0108,0,0,0,0,0,0,-1.0026,-1.0029,-1.0047,-1.0034,-1.0035,-1.0008,-1.0018,-1.0012,-1.0016,-0.9994,-0.9988,-0.9994,-0.9975,-0.9976,-1.001,-1.0044,-0.9972,-0.9973,-1.0099,-1.0103,-1.0107,-1.0179,0,0,0,0,0,0,-1.0025,-1.0029,-1.0051,-1.0035,-1.0036,-1.0078,-1.002,-1.0014,-1.0019,-1.0012,-1.0001,-0.9996,-0.9973,-1.0008,-1.0012,-1.0045,-0.9975,-1.0096,-1.0101,-1.0105,-1.0174,-1.0185,-1.0195,0,0,0,0,0,-1.0025,-1.0072,-1.0052,-1.0055,-1.0062,-1.008,-1.0081,-1.0053,-1.0022,-1.0043,-1.0029,-0.9997,-1.004,-1.0012,-1.0016,-1.005,-1.0094,-1.01,-1.0105,-1.0169,-1.0183,-1.0194,0,0,0,0,0,0,-1.0093,-1.0069,-1.0047,-1.009,-1.0088,-1.0069,-1.0095,-1.0068,-1.0075,-1.0068,-1.0033,-1.0031,-1.007,-1.0063,-1.0033,-1.0105,-1.0061,-1.0068,-1.0108,-1.0121,-1.0132,-1.0133,-0.9976,0,0,0,0,0,-1.0113,-1.0129,-1.0108,-1.0148,-1.0148,-1.0122,-1.0129,-1.0107,-1.0104,-1.0103,-1.0091,-1.0089,-1.0102,-1.0111,-1.0122,-1.0172,-1.0169,-1.0198,-1.0209,-1.0217,-1.0224,-1.0251,-1.0263,-1.0127,-1.0126,-1.0126,0,0,-1.0154,-1.0143,-1.0156,-1.0161,-1.0157,-1.0176,-1.0122,-1.0143,-1.0157,-1.0106,-1.0137,-1.0129,-1.0124,-1.0167,-1.0185,-1.0162,-1.0261,-1.0225,-1.0232,-1.0233,-1.0258,-1.0271,-1.0282,-1.013,-1.013,-1.0129,0,0,-1.0239,-1.0233,-1.0265,-1.0262,-1.0256,-1.0239,-1.0247,-1.0233,-1.0225,-1.0255,-1.0218,-1.0234,-1.0257,-1.0255,-1.0258,-1.0343,-1.0314,-1.0348,-1.0403,-1.0429,-1.044,-1.045,-1.0481,-1.0492,-1.0354,-1.0354,-1.0354,0,-1.0292,-1.0318,-1.0286,-1.031,-1.0314,-1.0269,-1.0302,-1.0301,-1.0299,-1.0303,-1.0277,-1.0306,-1.0299,-1.0341,-1.0362,-1.0365,-1.0374,-1.0349,-1.0441,-1.045,-1.0458,-1.0488,-1.05,-1.0358,-1.0358,-1.0357,-1.0357,0,-1.0383,-1.0402,-1.0429,-1.0428,-1.0435,-1.0464,-1.0437,-1.0448,-1.0426,-1.0412,-1.0444,-1.0435,-1.0443,-1.0452,-1.043,-1.0491,-1.0477,-1.0447,-1.0402,-1.0476,-1.0503,-1.0514,-1.0364,-1.0363,-1.0361,-1.036,0,0,-1.0511,-1.0492,-1.0503,-1.0502,-1.0492,-1.0506,-1.0533,-1.0541,-1.0552,-1.0552,-1.0574,-1.0595,-1.0567,-1.057,-1.0548,-1.0572,-1.0641,-1.0538,-1.0538,-1.0558,-1.0708,-1.0731,-1.0745,-1.0621,-1.0623,-1.0625,-1.0708,0,-1.0593,-1.0638,-1.061,-1.066,-1.0677,-1.0634,-1.0658,-1.0655,-1.0642,-1.0656,-1.0642,-1.0657,-1.0619,-1.062,-1.0641,-1.0628,-1.0671,-1.0622,-1.0643,-1.0644,-1.0646,-1.0758,-1.0783,-1.0862,-1.0719,-1.0721,-1.0722,0,-1.0695,-1.0699,-1.075,-1.0738,-1.0744,-1.0766,-1.0771,-1.0784,-1.078,-1.0769,-1.0773,-1.0745,-1.0772,-1.0727,-1.0764,-1.0731,-1.0738,-1.0733,-1.0735,-1.0737,-1.0688,-1.0763,-1.0887,-1.0899,-1.0738,-1.0737,-1.0736,0,-1.0783,-1.0802,-1.0835,-1.0836,-1.0822,-1.0838,-1.0833,-1.0827,-1.0834,-1.0838,-1.0842,-1.0851,-1.0855,-1.0863,-1.0838,-1.0808,-1.0879,-1.0832,-1.0871,-1.0872,-1.0888,-1.0888,-1.1015,-1.0892,-1.0892,-1.0892,-1.0891,0,-1.0878,-1.0911,-1.0875,-1.0896,-1.0932,-1.09,-1.0937,-1.0927,-1.0922,-1.0941,-1.0904,-1.0922,-1.0889,-1.0904,-1.0885,-1.0919,-1.0921,-1.0914,-1.0909,-1.0917,-1.0919,-1.0922,-1.0916,-1.0895,-1.0894,-1.0894,-1.0893,0,-1.0984,-1.0961,-1.0994,-1.0978,-1.0975,-1.1002,-1.0988,-1.1007,-1.0992,-1.1016,-1.102,-1.0996,-1.1012,-1.0989,-1.1002,-1.099,-1.1036,-1.1022,-1.1038,-1.1034,-1.1075,-1.1071,-1.1209,-1.1226,-1.1092,-1.1093,-1.1094,0,-1.1046,-1.107,-1.1057,-1.1066,-1.1063,-1.1079,-1.1086,-1.1056,-1.1064,-1.1062,-1.1081,-1.1094,-1.1102,-1.113,-1.1115,-1.1125,-1.1111,-1.1159,-1.1113,-1.1121,-1.1113,-1.1112,-1.1115,-1.1169,-1.117,-1.1172,-1.1173,0,-1.1159,-1.1146,-1.1157,-1.1164,-1.1173,-1.1177,-1.1179,-1.1189,-1.1157,-1.1169,-1.1184,-1.1191,-1.1205,-1.1218,-1.1225,-1.122,-1.1192,-1.1187,-1.1197,-1.1206,-1.1215,-1.1211,-1.1064,-1.1184,-1.1183,-1.1182,-1.1182,-1.1181,-1.1245,-1.1265,-1.1259,-1.1272,-1.127,-1.1272,-1.1289,-1.1276,-1.1288,-1.1297,-1.1279,-1.1299,-1.1295,-1.1301,-1.13,-1.1316,-1.1295,-1.1309,-1.1312,-1.1316,-1.1323,-1.1212,-1.1317,-1.1316,-1.1316,-1.1316,-1.1315,0,-1.1356,-1.135,-1.1363,-1.1366,-1.1377,-1.1348,-1.1349,-1.136,-1.1378,-1.1377,-1.1386,-1.1404,-1.1417,-1.1403,-1.1414,-1.1429,-1.1417,-1.1433,-1.1432,-1.1432,-1.1341,-1.1331,-1.1443,-1.1443,-1.1443,-1.1443,-1.1443,-1.1443,-1.1416,-1.1448,-1.1435,-1.1467,-1.146,-1.148,-1.1482,-1.1485,-1.1483,-1.1506,-1.1516,-1.1506,-1.15,-1.151,-1.1521,-1.1517,-1.1523,-1.1544,-1.1535,-1.145,-1.1438,-1.1426,-1.1417,-1.1545,-1.1545,-1.1625,-1.1625,-1.1626]},{"header":{"parameterUnit":"m.s-1","parameterCategory":1,"la1":30.2991,"la2":30.254,"lo1":-89.0895,"lo2":-89.0444,"dy":0.0017,"dx":0.0017,"nx":28,"ny":28,"refTime":"2024-10-08T03:00:00:Z","depth":0,"parameterNumber":3,"parameterNumberName":"V-component_of_WINDS"},"data":[0,0,0,0,0,0,0,0,0,0,0,0,0,0,0,0,0,0,0,0,0,0,0,0,0,0,0,0,0,0,0,0,0,0,0,0,0,0,0,0,0,0,0,0,0,0,0,0,0,0,0,0,0,0,0,0,0,0,-2.3038,-2.3037,0,-2.2993,-2.2992,-2.2992,-2.2946,-2.2945,-2.2944,-2.2944,-2.2895,-2.2895,-2.2894,0,0,0,0,0,0,0,0,0,0,0,0,0,-2.3083,-2.3082,-2.3038,-2.3037,-2.3037,-2.2993,-2.2992,-2.2991,-2.2946,-2.2945,-2.2944,-2.2944,-2.2896,-2.2895,-2.2894,0,0,0,0,0,0,0,0,0,0,0,0,0,-2.3053,-2.3082,-2.3038,-2.3009,-2.3006,-2.2993,-2.2992,-2.2991,-2.2946,-2.2945,-2.2944,-2.2943,-2.2896,-2.2895,-2.2894,-2.2905,0,0,-2.289,-2.289,0,0,0,0,0,0,0,0,-2.3055,-2.3052,-2.3014,-2.3011,-2.3007,-2.2974,-2.299,-2.2962,-2.2946,-2.2969,-2.2944,-2.2943,-2.2922,-2.2919,-2.2912,-2.2903,-2.2901,-2.289,-2.289,-2.2889,-2.2889,0,0,0,0,0,0,0,-2.3057,-2.3053,-2.302,-2.3013,-2.3009,-2.2997,-2.2992,-2.2985,-2.2951,-2.2967,-2.2963,-2.2958,-2.292,-2.2913,-2.2911,-2.29,-2.289,-2.2889,-2.2889,-2.2888,-2.2898,-2.2898,0,0,0,0,0,0,-2.3064,-2.3055,-2.3021,-2.3019,-2.3029,-2.2997,-2.2991,-2.2985,-2.2951,-2.2945,-2.2959,-2.2956,-2.2916,-2.2912,-2.2909,-2.2919,-2.2889,-2.2888,-2.2888,-2.2897,-2.2898,-2.2899,0,0,0,0,0,0,-2.3065,-2.3061,-2.3023,-2.3036,-2.303,-2.2997,-2.2991,-2.2985,-2.2978,-2.2945,-2.2939,-2.2959,-2.2915,-2.291,-2.2907,-2.2917,-2.2888,-2.2887,-2.2896,-2.2897,-2.2898,-2.2941,0,0,0,0,0,0,-2.3066,-2.3062,-2.3067,-2.3036,-2.303,-2.3022,-2.2992,-2.2985,-2.2977,-2.2973,-2.2943,-2.2937,-2.2914,-2.2908,-2.2906,-2.2915,-2.2886,-2.2894,-2.2896,-2.2898,-2.2939,-2.2944,-2.2948,0,0,0,0,0,-2.3068,-2.308,-2.3067,-2.3063,-2.3035,-2.3023,-2.3019,-2.2992,-2.2978,-2.2982,-2.2961,-2.2938,-2.2917,-2.2908,-2.2905,-2.2914,-2.2894,-2.2896,-2.2898,-2.2936,-2.2943,-2.2948,0,0,0,0,0,0,-2.3112,-2.3076,-2.3061,-2.3063,-2.3047,-2.3015,-2.302,-2.3,-2.2987,-2.2983,-2.295,-2.2944,-2.2943,-2.2928,-2.292,-2.2923,-2.2902,-2.2903,-2.2933,-2.2938,-2.2943,-2.2946,-2.2885,0,0,0,0,0,-2.3122,-2.3116,-2.3085,-2.309,-2.3082,-2.3053,-2.3047,-2.3027,-2.3008,-2.3001,-2.2979,-2.2961,-2.295,-2.2944,-2.2932,-2.2937,-2.2929,-2.2941,-2.2946,-2.295,-2.2951,-2.2952,-2.2956,-2.2905,-2.2905,-2.2905,0,0,-2.3142,-2.3122,-2.312,-2.3098,-2.3083,-2.3077,-2.3047,-2.3042,-2.3037,-2.3,-2.2995,-2.2979,-2.2956,-2.2956,-2.2955,-2.2944,-2.2964,-2.2953,-2.2956,-2.2955,-2.2954,-2.2959,-2.2963,-2.2907,-2.2906,-2.2906,0,0,-2.3176,-2.3161,-2.3163,-2.3148,-2.3126,-2.3106,-2.3107,-2.3078,-2.3066,-2.3061,-2.3033,-2.3026,-2.3008,-2.2993,-2.2983,-2.3011,-2.299,-2.3008,-2.3033,-2.3034,-2.3038,-2.3041,-2.305,-2.3054,-2.301,-2.301,-2.301,0,-2.3204,-2.3194,-2.3166,-2.3163,-2.3154,-2.3121,-2.3123,-2.311,-2.3084,-2.3078,-2.3066,-2.3043,-2.3025,-2.3021,-2.3028,-2.3021,-2.302,-2.3011,-2.304,-2.3043,-2.3045,-2.3053,-2.3057,-2.3012,-2.3012,-2.3012,-2.3012,0,-2.3229,-2.3223,-2.3227,-2.3204,-2.3195,-2.3195,-2.3166,-2.3161,-2.3142,-2.3124,-2.3118,-2.3096,-2.3079,-2.3077,-2.3059,-2.307,-2.3063,-2.3046,-2.3024,-2.3053,-2.306,-2.3063,-2.3016,-2.3015,-2.3014,-2.3014,0,0,-2.3288,-2.325,-2.3252,-2.3241,-2.3214,-2.3208,-2.3205,-2.3189,-2.3185,-2.3168,-2.3165,-2.315,-2.3134,-2.3123,-2.3103,-2.3103,-2.3126,-2.3086,-2.3084,-2.3093,-2.3135,-2.3148,-2.3152,-2.3112,-2.3112,-2.3113,-2.3137,0,-2.3316,-2.331,-2.3285,-2.3286,-2.3279,-2.3248,-2.3246,-2.3229,-2.3211,-2.3202,-2.3182,-2.3172,-2.3152,-2.3145,-2.3145,-2.3123,-2.3134,-2.3121,-2.3107,-2.3107,-2.3112,-2.3156,-2.3169,-2.3193,-2.314,-2.314,-2.314,0,-2.3348,-2.3334,-2.3335,-2.3308,-2.3304,-2.3302,-2.3285,-2.3277,-2.3257,-2.3244,-2.3232,-2.3209,-2.3204,-2.3184,-2.3176,-2.3168,-2.3161,-2.3149,-2.3149,-2.3146,-2.3125,-2.3153,-2.32,-2.3203,-2.3145,-2.3144,-2.3144,0,-2.339,-2.3371,-2.3369,-2.3361,-2.3329,-2.3329,-2.3315,-2.3294,-2.3286,-2.3271,-2.3265,-2.3249,-2.324,-2.3228,-2.3202,-2.319,-2.3196,-2.3174,-2.3184,-2.3185,-2.3186,-2.3186,-2.3232,-2.3183,-2.3183,-2.3183,-2.3183,0,-2.3423,-2.3424,-2.3387,-2.3386,-2.3386,-2.3357,-2.3358,-2.3342,-2.3323,-2.3317,-2.329,-2.3284,-2.3251,-2.3241,-2.3221,-2.3216,-2.3213,-2.3201,-2.3196,-2.3203,-2.3205,-2.3197,-2.3194,-2.3184,-2.3184,-2.3184,-2.3184,0,-2.3469,-2.3445,-2.344,-2.3411,-2.3403,-2.3405,-2.3379,-2.3376,-2.3357,-2.335,-2.3347,-2.3317,-2.3304,-2.3277,-2.3258,-2.3244,-2.3244,-2.3234,-2.3251,-2.3247,-2.3258,-2.3257,-2.33,-2.3303,-2.3254,-2.3255,-2.3255,0,-2.3491,-2.3492,-2.3463,-2.3457,-2.3445,-2.3437,-2.3428,-2.34,-2.3392,-2.3369,-2.3368,-2.3354,-2.3341,-2.3323,-2.3298,-2.3283,-2.3272,-2.3288,-2.3269,-2.3277,-2.3271,-2.3271,-2.327,-2.3292,-2.3293,-2.3293,-2.3294,0,-2.3533,-2.3521,-2.351,-2.3495,-2.3486,-2.3473,-2.3458,-2.3455,-2.3423,-2.3415,-2.3403,-2.3393,-2.3373,-2.3358,-2.3339,-2.3325,-2.3303,-2.33,-2.3301,-2.3308,-2.3317,-2.3311,-2.3261,-2.3299,-2.3298,-2.3298,-2.3297,-2.3297,-2.3567,-2.3566,-2.3545,-2.3534,-2.352,-2.3507,-2.3502,-2.3483,-2.3472,-2.3454,-2.3438,-2.3427,-2.3406,-2.3378,-2.3365,-2.3355,-2.3345,-2.3347,-2.3347,-2.3348,-2.335,-2.332,-2.3352,-2.3351,-2.3351,-2.3351,-2.3351,0,-2.3607,-2.3592,-2.3582,-2.3562,-2.3553,-2.3536,-2.3518,-2.3511,-2.3502,-2.3485,-2.3473,-2.3458,-2.3444,-2.3419,-2.3403,-2.34,-2.3389,-2.3396,-2.3395,-2.3392,-2.3361,-2.3361,-2.3405,-2.3405,-2.3405,-2.3405,-2.3405,-2.3405,-2.3626,-2.3622,-2.3608,-2.3597,-2.3582,-2.3571,-2.3563,-2.355,-2.3536,-2.3521,-2.351,-2.3494,-2.3473,-2.3455,-2.3441,-2.3434,-2.3429,-2.3438,-2.3428,-2.34,-2.3394,-2.339,-2.3389,-2.3438,-2.3438,-2.3459,-2.346,-2.346]}]]